Vorticity
6 1 0 6 15 9 6 20 8 30 13 9 10 -1 15 13 12 7 7 -0 -5 -1 16 14 8 12 11 11 9 -9 1 -4 7 2 0 8 8 11 9 6 9 7 7 7 8 8 9
1 16 15 6 35 36 31 42 33 21 27 16 16 13 12 16 9 5 2 11 17 19 5 8 19 11 6 -15 -7 10 1 7 8 11 10 8 9 5 5 6 8 -1 2 6 6 10 12
-1 5 16 26 19 3 16 30 37 54 48 20 12 14 7 10 16 14 9 7 10 15 15 11 10 12 6 2 -20 22 9 8 11 8 7 7 7 9 7 11 16 11 10 11 16 14 18
1 9 17 20 28 20 10 19 10 18 33 41 23 12 20 8 14 17 12 13 5 12 16 14 12 -10 -21 -12 -1 49 7 6 7 6 7 7 6 7 6 5 4 4 11 16 10 -2 0
4 5 11 17 30 9 4 12 16 12 1 11 5 6 10 10 7 1 15 8 6 19 19 16 13 12 12 13 4 6 0 6 6 4 6 6 7 5 8 9 13 19 5 8 16 4 4
3 4 5 17 30 14 10 8 11 11 11 19 15 18 15 17 16 18 25 20 13 22 24 17 11 15 -16 21 9 31 5 6 6 10 9 11 9 6 11 9 -1 5 5 -0 2 -5 -6
4 5 4 13 44 9 17 9 10 11 16 17 12 10 12 16 20 21 16 25 31 16 11 -0 17 -20 33 -16 3 18 3 9 8 7 9 10 10 9 7 2 3 4 1 2 12 16 23
6 7 6 12 35 16 10 10 8 11 6 9 8 14 15 11 19 10 18 27 15 41 -13 10 13 20 40 19 28 8 13 7 4 6 7 10 9 10 11 10 6 5 1 6 20 -21 11
4 9 6 12 12 28 8 10 17 25 11 8 7 24 22 16 11 11 15 35 8 -8 20 5 15 36 6 22 15 13 8 2 15 6 7 10 1 -10 -2 3 2 7 0 1 5 4 4
4 6 12 7 16 16 25 21 29 21 12 15 14 11 14 17 26 45 6 27 42 29 -5 13 17 5 3 7 8 8 9 6 4 9 4 17 23 13 7 6 16 6 26 -0 3 19 3
5 4 14 6 11 14 21 18 17 13 12 14 13 14 15 11 9 6 29 25 19 -38 1 29 6 9 11 -19 23 5 3 5 8 8 4 7 4 1 5 6 7 -4 14 5 4 -0 8
6 6 8 12 10 12 15 16 17 14 9 11 10 6 10 19 21 28 13 -29 -8 -2 10 13 33 17 -1 17 -1 11 5 7 5 7 6 8 -1 -3 7 7 7 -1 7 23 45 42 35
9 5 6 10 8 13 14 14 14 14 13 12 11 8 4 1 1 -11 -3 4 -3 19 2 18 28 1 5 7 20 11 5 8 4 4 13 5 25 15 18 24 18 11 8 11 14 12 3
7 10 8 8 10 7 11 13 12 8 2 3 3 6 9 10 21 19 18 17 16 37 39 41 10 -3 17 -0 6 4 1 2 4 2 2 7 11 20 10 12 -1 5 10 -6 13 8 -1
10 6 9 10 10 8 10 2 3 5 4 3 9 6 18 18 29 26 22 15 14 -2 27 6 -1 7 2 3 15 8 23 16 16 21 6 13 12 1 11 9 9 -5 16 8 10 24 9
11 11 8 10 10 9 13 5 7 -6 -13 -4 7 15 25 25 30 22 14 20 14 14 -2 3 11 12 12 9 12 7 15 9 -1 6 19 13 9 3 6 9 18 20 10 21 10 10 14
10 10 12 11 9 12 9 14 9 10 11 5 11 11 13 9 2 3 -1 4 7 8 11 17 23 15 17 4 15 7 10 -1 8 13 9 11 7 7 17 6 6 -2 5 14 13 12 9
10 11 9 7 8 7 11 18 3 6 9 6 21 10 15 1 4 3 6 8 10 9 3 6 4 8 9 11 7 4 15 19 15 -1 0 8 6 10 -1 -6 -2 25 11 18 9 5 10
8 11 11 10 3 4 7 9 13 14 5 8 18 21 19 35 12 5 0 5 4 -0 -3 11 13 12 2 2 5 9 14 11 14 11 7 9 4 13 20 18 -12 5 25 31 12 10 11
15 8 12 10 16 7 8 8 10 10 9 8 10 21 10 33 3 4 11 7 10 7 4 7 8 7 12 11 16 8 10 5 15 9 13 8 13 25 22 10 5 6 21 38 -2 20 21
16 13 7 13 8 22 6 6 12 13 13 2 15 7 17 22 4 -1 13 7 4 3 4 2 6 9 9 4 -0 10 11 8 4 8 14 11 9 7 6 12 6 9 16 35 6 1 24
6 14 11 7 9 19 15 7 20 12 14 9 10 13 25 26 15 9 2 12 6 3 7 9 6 8 11 7 9 11 10 6 13 8 10 13 9 8 7 4 -0 11 4 2 7 7 5
8 11 11 10 12 9 17 8 15 10 13 13 4 14 21 13 10 10 6 2 8 4 7 4 7 5 8 5 7 6 5 9 9 7 9 13 14 7 9 5 11 4 5 4 -1 -0 -1
14 7 11 10 10 5 21 3 18 11 10 14 9 10 21 21 13 5 4 6 5 1 6 5 5 5 6 4 4 4 4 4 4 10 7 5 13 15 7 18 14 12 7 4 8 8 14
18 6 9 9 11 11 13 12 12 14 8 9 14 11 15 18 16 7 7 8 7 9 3 5 7 6 4 3 13 21 12 16 5 6 8 9 9 12 10 11 8 16 11 7 2 6 7
26 8 7 10 8 10 8 18 9 13 10 4 11 14 14 15 17 15 7 3 7 9 3 3 5 5 3 6 10 8 11 1 17 15 6 6 9 12 10 12 5 9 7 3 4 16 13
18 8 6 9 9 8 10 8 21 10 12 7 5 12 14 15 12 14 13 16 12 4 9 4 4 4 6 9 8 16 10 3 18 12 4 8 8 15 14 4 13 16 11 12 7 -3 19
19 14 6 7 10 8 9 10 14 15 10 12 5 7 8 13 16 12 12 11 12 9 10 2 17 16 10 11 10 10 6 9 7 -4 8 2 16 11 16 10 20 13 16 3 6 4 12
22 8 13 10 11 8 8 9 9 14 13 10 11 6 6 5 9 12 10 13 16 16 14 14 -4 -13 4 2 1 9 -5 -2 -8 8 2 26 8 -9 -4 -5 -8 7 11 4 13 5 10
Height
3080 3072 3065 3057 3046 3036 3024 3012 3006 3004 3001 3003 3003 3005 3006 3009 3010 3014 3014 3015 3017 3018 3021 3025 3028 3030 3033 3038 3039 3044 3048 3051 3054 3056 3057 3060 3060 3060 3061 3063 3063 3061 3062 3061 3061 3062 3062
3076 3069 3059 3048 3037 3027 3015 3003 2991 2987 2990 2990 2993 2998 3000 3003 3005 3009 3010 3010 3011 3014 3019 3022 3024 3028 3033 3036 3037 3041 3045 3049 3051 3053 3054 3056 3056 3057 3058 3059 3059 3057 3056 3057 3057 3058 3054
3073 3064 3054 3042 3032 3022 3010 2997 2988 2980 2977 2981 2987 2991 2995 2998 3001 3004 3006 3006 3007 3011 3015 3018 3022 3023 3030 3031 3036 3038 3041 3045 3048 3049 3051 3054 3055 3056 3056 3056 3055 3054 3054 3054 3055 3052 3048
3069 3062 3050 3039 3029 3020 3010 3001 2992 2986 2982 2983 2985 2989 2992 2995 2997 3000 3002 3003 3003 3007 3011 3015 3020 3025 3027 3031 3035 3038 3039 3043 3045 3047 3049 3052 3053 3053 3054 3053 3053 3053 3052 3051 3051 3048 3047
3070 3061 3050 3039 3030 3020 3014 3007 3000 2994 2990 2990 2990 2990 2992 2994 2995 2996 2998 3001 3001 3005 3009 3014 3019 3024 3028 3032 3036 3038 3039 3041 3044 3046 3047 3050 3052 3051 3051 3051 3051 3050 3049 3048 3046 3044 3041
3073 3063 3052 3041 3031 3023 3017 3011 3005 3000 2997 2995 2993 2992 2991 2991 2993 2995 2996 2997 2999 3002 3007 3013 3020 3027 3027 3032 3033 3035 3038 3041 3043 3045 3047 3049 3049 3048 3048 3048 3050 3049 3048 3045 3041 3042 3039
3074 3065 3054 3045 3034 3026 3020 3014 3009 3005 3000 2996 2994 2992 2990 2990 2990 2991 2993 2996 3002 3007 3010 3014 3018 3020 3026 3031 3033 3036 3038 3041 3042 3044 3046 3047 3048 3046 3046 3047 3048 3047 3046 3041 3040 3040 3035
3076 3069 3059 3051 3038 3029 3022 3017 3012 3008 3003 2998 2994 2992 2989 2988 2989 2988 2990 2994 2999 3004 3009 3014 3019 3023 3026 3029 3033 3035 3039 3042 3042 3045 3045 3046 3045 3045 3045 3045 3045 3045 3042 3038 3035 3036 3033
3079 3073 3064 3056 3047 3033 3024 3019 3013 3009 3005 3000 2997 2995 2992 2990 2989 2989 2991 2994 3000 3004 3011 3019 3021 3023 3028 3031 3034 3037 3039 3042 3043 3044 3045 3044 3046 3044 3045 3044 3044 3042 3040 3036 3035 3032 3028
3084 3075 3069 3060 3052 3042 3028 3021 3014 3011 3007 3002 2996 2995 2994 2992 2993 2991 2993 2996 3001 3007 3016 3021 3022 3025 3029 3031 3036 3038 3041 3044 3045 3046 3045 3044 3044 3042 3043 3041 3042 3037 3036 3035 3033 3032 3026
3085 3079 3073 3064 3056 3050 3041 3028 3018 3012 3009 3004 3000 2996 2996 2995 2995 2995 2998 3001 3006 3012 3016 3026 3026 3028 3030 3034 3037 3039 3041 3043 3045 3046 3047 3045 3042 3042 3040 3040 3039 3033 3034 3032 3029 3026 3023
3088 3082 3075 3069 3062 3056 3049 3041 3032 3023 3017 3013 3010 3006 3003 3001 3001 3001 3005 3008 3011 3016 3020 3025 3025 3029 3032 3035 3038 3040 3042 3044 3045 3044 3043 3041 3041 3039 3036 3035 3034 3034 3031 3027 3022 3023 3019
3091 3085 3079 3074 3069 3062 3057 3051 3042 3033 3027 3022 3018 3016 3013 3010 3010 3011 3011 3012 3014 3016 3026 3029 3029 3033 3036 3038 3040 3042 3043 3043 3044 3044 3041 3039 3036 3034 3033 3032 3031 3032 3031 3026 3022 3018 3015
3093 3088 3082 3075 3072 3068 3062 3057 3052 3044 3037 3031 3026 3024 3021 3017 3014 3011 3013 3015 3015 3025 3025 3029 3033 3036 3037 3039 3041 3041 3042 3043 3043 3042 3041 3039 3036 3034 3033 3032 3032 3030 3031 3028 3023 3018 3015
3095 3089 3084 3078 3074 3068 3066 3061 3058 3054 3047 3041 3034 3029 3026 3023 3019 3018 3017 3015 3025 3029 3031 3034 3038 3039 3039 3040 3041 3042 3041 3042 3041 3040 3042 3039 3036 3034 3032 3031 3032 3030 3028 3026 3022 3017 3015
3098 3091 3085 3081 3074 3072 3068 3065 3062 3060 3056 3050 3045 3039 3033 3030 3028 3027 3021 3022 3030 3034 3036 3038 3039 3040 3041 3042 3042 3042 3042 3042 3041 3040 3040 3040 3037 3034 3033 3032 3032 3030 3027 3025 3021 3019 3013
3100 3093 3087 3082 3077 3073 3069 3066 3063 3060 3058 3056 3052 3047 3043 3040 3038 3035 3027 3031 3035 3038 3038 3040 3041 3042 3042 3043 3043 3043 3044 3043 3041 3041 3041 3040 3039 3037 3033 3031 3031 3029 3025 3023 3021 3019 3016
3102 3095 3089 3084 3079 3074 3070 3067 3064 3060 3057 3056 3054 3051 3047 3046 3045 3040 3038 3037 3040 3042 3042 3042 3044 3044 3044 3044 3045 3045 3044 3043 3043 3043 3043 3042 3039 3035 3034 3031 3032 3028 3024 3022 3021 3020 3018
3103 3096 3090 3085 3081 3076 3070 3066 3062 3062 3059 3057 3054 3051 3049 3046 3046 3045 3044 3044 3045 3046 3045 3045 3045 3045 3045 3046 3048 3047 3046 3046 3045 3045 3045 3043 3040 3036 3033 3034 3031 3027 3022 3017 3018 3019 3018
3105 3097 3091 3085 3080 3076 3071 3066 3064 3061 3059 3056 3055 3053 3051 3048 3047 3047 3047 3047 3048 3048 3048 3048 3048 3048 3047 3047 3048 3049 3048 3047 3046 3046 3045 3044 3042 3040 3040 3038 3035 3030 3022 3018 3019 3019 3019
3105 3099 3092 3085 3079 3076 3073 3067 3063 3060 3057 3057 3053 3055 3055 3052 3051 3050 3050 3051 3051 3050 3051 3050 3051 3050 3050 3049 3050 3050 3048 3048 3047 3047 3046 3046 3044 3042 3041 3039 3036 3034 3029 3025 3023 3022 3022
3105 3100 3095 3087 3080 3075 3073 3069 3063 3061 3059 3058 3054 3055 3057 3055 3055 3054 3053 3053 3054 3054 3054 3053 3052 3052 3052 3051 3051 3051 3050 3048 3048 3048 3047 3046 3046 3044 3042 3041 3039 3036 3034 3032 3030 3028 3027
3104 3099 3095 3089 3082 3075 3071 3070 3066 3063 3059 3059 3053 3052 3053 3054 3055 3056 3057 3056 3056 3056 3056 3055 3054 3053 3053 3053 3051 3051 3050 3049 3048 3047 3047 3046 3046 3045 3042 3041 3040 3040 3037 3036 3034 3034 3033
3104 3098 3093 3090 3085 3077 3071 3070 3068 3064 3061 3060 3059 3053 3054 3057 3058 3057 3057 3057 3057 3056 3056 3056 3056 3055 3056 3054 3053 3051 3050 3049 3049 3048 3046 3045 3044 3044 3043 3040 3042 3037 3036 3036 3036 3035 3034
3103 3096 3092 3088 3085 3080 3072 3069 3068 3065 3063 3060 3060 3056 3052 3054 3057 3059 3057 3057 3056 3056 3057 3057 3057 3056 3055 3054 3053 3051 3049 3049 3048 3047 3046 3045 3043 3041 3042 3042 3040 3037 3036 3036 3036 3036 3035
3101 3095 3090 3087 3083 3080 3074 3068 3066 3065 3064 3061 3059 3058 3054 3053 3054 3056 3059 3059 3059 3058 3058 3057 3057 3056 3056 3055 3054 3053 3050 3048 3048 3046 3045 3044 3043 3043 3039 3038 3037 3035 3035 3034 3034 3032 3032
3098 3093 3088 3084 3081 3078 3074 3067 3066 3064 3064 3062 3059 3058 3056 3053 3052 3053 3055 3056 3058 3059 3057 3057 3056 3056 3055 3054 3054 3053 3051 3050 3047 3045 3044 3043 3041 3040 3039 3037 3032 3032 3033 3033 3034 3035 3029
3092 3089 3085 3082 3078 3075 3072 3068 3063 3063 3062 3062 3059 3057 3058 3055 3054 3053 3053 3054 3055 3056 3057 3057 3057 3054 3054 3054 3054 3052 3050 3048 3046 3045 3043 3043 3042 3039 3037 3035 3033 3030 3030 3032 3031 3029 3029
3087 3084 3081 3078 3076 3072 3070 3067 3061 3060 3061 3059 3059 3057 3055 3055 3054 3052 3050 3051 3052 3052 3053 3053 3055 3054 3052 3052 3051 3050 3050 3048 3045 3043 3042 3042 3041 3039 3039 3033 3031 3030 3029 3028 3028 3028 3028